Hourly Weather Bartkowice

Today, 19 April, Monday

Time Temperature Precipitation Wind Pressure Humidity
00:00 +8°C° 0 mm 1 mps 743 mmHg 77%
01:00 +7°C° 0 mm 2 mps 743 mmHg 78%
02:00 +7°C° 0.1 mm 2 mps 743 mmHg 81%
03:00 +7°C° 0.1 mm 2 mps 742 mmHg 85%
04:00 +7°C° 0.1 mm 2 mps 742 mmHg 88%
05:00 +8°C° 0.9 mm 1 mps 742 mmHg 91%
06:00 +8°C° 0.9 mm 1 mps 742 mmHg 93%
07:00 +8°C° 0.9 mm 1 mps 742 mmHg 96%
08:00 +9°C° 0.3 mm 1 mps 742 mmHg 95%
09:00 +9°C° 0.3 mm 1 mps 742 mmHg 94%
10:00 +9°C° 0.3 mm 2 mps 742 mmHg 92%
11:00 +10°C° 0.2 mm 2 mps 742 mmHg 82%
12:00 +11°C° 0.2 mm 3 mps 742 mmHg 72%
13:00 +13°C° 0.2 mm 3 mps 741 mmHg 62%
14:00 +13°C° 0.2 mm 4 mps 741 mmHg 63%
15:00 +12°C° 0.2 mm 4 mps 741 mmHg 64%
16:00 +12°C° 0.2 mm 5 mps 741 mmHg 65%
17:00 +10°C° 0 mm 5 mps 741 mmHg 69%
18:00 +10°C° 0 mm 4 mps 741 mmHg 72%
19:00 +8°C° 0 mm 4 mps 741 mmHg 75%
20:00 +9°C° 0 mm 3 mps 741 mmHg 77%
21:00 +8°C° 0 mm 3 mps 741 mmHg 78%
22:00 +8°C° 0 mm 2 mps 741 mmHg 80%
23:00 +7°C° 0 mm 2 mps 741 mmHg 82%

Tomorrow, 20 April, Tuesday

Time Temperature Precipitation Wind Pressure Humidity
00:00 +7°C° 0 mm 2 mps 741 mmHg 83%
01:00 +6°C° 0 mm 2 mps 741 mmHg 85%
02:00 +6°C° 0 mm 2 mps 741 mmHg 87%
03:00 +5°C° 0 mm 2 mps 741 mmHg 89%
04:00 +5°C° 0 mm 2 mps 741 mmHg 92%
05:00 +6°C° 0 mm 2 mps 741 mmHg 87%
06:00 +5°C° 0 mm 3 mps 741 mmHg 82%
07:00 +7°C° 0 mm 3 mps 741 mmHg 77%
08:00 +8°C° 0 mm 3 mps 741 mmHg 74%
09:00 +8°C° 0 mm 3 mps 741 mmHg 71%
10:00 +9°C° 0 mm 3 mps 741 mmHg 68%
11:00 +10°C° 0 mm 3 mps 741 mmHg 63%
12:00 +11°C° 0 mm 3 mps 740 mmHg 58%
13:00 +13°C° 0 mm 2 mps 740 mmHg 52%
14:00 +13°C° 0 mm 2 mps 740 mmHg 52%
15:00 +13°C° 0 mm 2 mps 740 mmHg 51%
16:00 +13°C° 0 mm 2 mps 739 mmHg 51%
17:00 +12°C° 0 mm 2 mps 739 mmHg 56%
18:00 +10°C° 0 mm 2 mps 739 mmHg 60%
19:00 +10°C° 0 mm 1 mps 740 mmHg 65%
20:00 +9°C° 0 mm 1 mps 740 mmHg 67%
21:00 +8°C° 0 mm 1 mps 739 mmHg 68%
22:00 +7°C° 0 mm 0 mps 739 mmHg 70%
23:00 +8°C° 0 mm 1 mps 739 mmHg 70%

Day after tomorrow, 21 April, Wednesday

Time Temperature Precipitation Wind Pressure Humidity
00:00 +8°C° 0 mm 1 mps 739 mmHg 70%
01:00 +7°C° 0 mm 2 mps 739 mmHg 70%
02:00 +6°C° 0 mm 2 mps 739 mmHg 75%
03:00 +6°C° 0 mm 2 mps 739 mmHg 80%
04:00 +5°C° 0 mm 2 mps 739 mmHg 84%
05:00 +5°C° 0.1 mm 3 mps 739 mmHg 83%
06:00 +7°C° 0.1 mm 3 mps 739 mmHg 82%
07:00 +8°C° 0.1 mm 3 mps 739 mmHg 82%
08:00 +8°C° 0.2 mm 4 mps 739 mmHg 78%
09:00 +10°C° 0.2 mm 4 mps 739 mmHg 74%
10:00 +10°C° 0.2 mm 5 mps 739 mmHg 70%
11:00 +12°C° 0.4 mm 5 mps 738 mmHg 66%
12:00 +13°C° 0.4 mm 5 mps 738 mmHg 62%
13:00 +14°C° 0.4 mm 5 mps 738 mmHg 58%
14:00 +14°C° 0.4 mm 5 mps 738 mmHg 58%
15:00 +14°C° 0.4 mm 5 mps 738 mmHg 59%
16:00 +14°C° 0.4 mm 5 mps 737 mmHg 60%
17:00 +12°C° 0.6 mm 4 mps 737 mmHg 67%
18:00 +11°C° 0.6 mm 4 mps 737 mmHg 74%
19:00 +10°C° 0.6 mm 3 mps 737 mmHg 82%
20:00 +9°C° 0.1 mm 3 mps 738 mmHg 84%
21:00 +9°C° 0.1 mm 3 mps 738 mmHg 86%
22:00 +8°C° 0.1 mm 3 mps 738 mmHg 88%
23:00 +7°C° 0 mm 3 mps 738 mmHg 90%

22 April, Thursday

Time Temperature Precipitation Wind Pressure Humidity
00:00 +6°C° 0 mm 4 mps 739 mmHg 92%
01:00 +5°C° 0 mm 4 mps 739 mmHg 94%
02:00 +4°C° 0 mm 4 mps 739 mmHg 93%
03:00 +4°C° 0 mm 4 mps 739 mmHg 91%
04:00 +4°C° 0 mm 3 mps 740 mmHg 90%
05:00 +4°C° 0 mm 4 mps 740 mmHg 84%
06:00 +3°C° 0 mm 5 mps 740 mmHg 79%
07:00 +2°C° 0 mm 5 mps 741 mmHg 73%
08:00 +3°C° 0 mm 6 mps 741 mmHg 66%
09:00 +4°C° 0 mm 6 mps 741 mmHg 60%
10:00 +4°C° 0 mm 6 mps 741 mmHg 53%
11:00 +5°C° 0 mm 6 mps 741 mmHg 50%
12:00 +5°C° 0 mm 6 mps 741 mmHg 47%
13:00 +6°C° 0 mm 7 mps 741 mmHg 45%
14:00 +6°C° 0 mm 7 mps 741 mmHg 46%
15:00 +6°C° 0 mm 7 mps 741 mmHg 47%
16:00 +6°C° 0 mm 7 mps 741 mmHg 48%
17:00 +5°C° 0 mm 6 mps 741 mmHg 52%
18:00 +5°C° 0 mm 5 mps 742 mmHg 57%
19:00 +4°C° 0 mm 4 mps 742 mmHg 61%
20:00 +3°C° 0 mm 4 mps 742 mmHg 66%
21:00 +2°C° 0 mm 3 mps 742 mmHg 70%
22:00 +2°C° 0 mm 3 mps 742 mmHg 74%
23:00 +1°C° 0 mm 4 mps 742 mmHg 76%

23 April, Friday

Time Temperature Precipitation Wind Pressure Humidity
00:00 0°C° 0 mm 4 mps 742 mmHg 77%
01:00 0°C° 0 mm 5 mps 742 mmHg 79%
02:00 0°C° 0 mm 5 mps 743 mmHg 82%
03:00 0°C° 0 mm 5 mps 743 mmHg 85%
04:00 -1°C° 0 mm 5 mps 743 mmHg 88%
05:00 -1°C° 0 mm 6 mps 743 mmHg 83%
06:00 +1°C° 0 mm 6 mps 744 mmHg 77%
07:00 +2°C° 0 mm 6 mps 744 mmHg 72%
08:00 +3°C° 0 mm 7 mps 745 mmHg 65%
09:00 +4°C° 0 mm 7 mps 745 mmHg 57%
10:00 +6°C° 0 mm 7 mps 745 mmHg 50%
11:00 +6°C° 0.1 mm 7 mps 745 mmHg 48%
12:00 +6°C° 0.1 mm 7 mps 745 mmHg 47%
13:00 +8°C° 0.1 mm 6 mps 745 mmHg 46%
14:00 +8°C° 0 mm 6 mps 745 mmHg 45%
15:00 +8°C° 0 mm 6 mps 745 mmHg 44%
16:00 +8°C° 0 mm 6 mps 745 mmHg 44%
17:00 +7°C° 0 mm 5 mps 745 mmHg 51%
18:00 +6°C° 0 mm 5 mps 745 mmHg 59%
19:00 +5°C° 0 mm 4 mps 745 mmHg 66%
20:00 +4°C° 0 mm 4 mps 745 mmHg 72%
21:00 +3°C° 0 mm 4 mps 745 mmHg 77%
22:00 +3°C° 0 mm 3 mps 745 mmHg 82%
23:00 +1°C° 0 mm 4 mps 745 mmHg 82%

24 April, Saturday

Time Temperature Precipitation Wind Pressure Humidity
00:00 +1°C° 0 mm 4 mps 745 mmHg 81%
01:00 +1°C° 0 mm 4 mps 745 mmHg 81%
02:00 +1°C° 0 mm 4 mps 745 mmHg 79%
03:00 +3°C° 0 mm 4 mps 744 mmHg 77%
04:00 +2°C° 0 mm 5 mps 744 mmHg 75%
05:00 +3°C° 0 mm 5 mps 744 mmHg 73%
06:00 +4°C° 0 mm 4 mps 744 mmHg 72%
07:00 +5°C° 0 mm 4 mps 744 mmHg 70%
08:00 +6°C° 0 mm 4 mps 744 mmHg 67%
09:00 +7°C° 0 mm 5 mps 744 mmHg 63%
10:00 +8°C° 0 mm 5 mps 744 mmHg 59%
11:00 +9°C° 0 mm 5 mps 743 mmHg 55%
12:00 +10°C° 0 mm 5 mps 743 mmHg 50%
13:00 +11°C° 0 mm 6 mps 743 mmHg 45%
14:00 +11°C° 0 mm 6 mps 742 mmHg 46%
15:00 +11°C° 0 mm 6 mps 742 mmHg 47%
16:00 +11°C° 0 mm 6 mps 742 mmHg 48%
17:00 +9°C° 0 mm 5 mps 742 mmHg 55%
18:00 +8°C° 0 mm 4 mps 742 mmHg 62%
19:00 +7°C° 0 mm 3 mps 742 mmHg 69%
20:00 +7°C° 0 mm 3 mps 743 mmHg 70%
21:00 +5°C° 0 mm 3 mps 743 mmHg 72%
22:00 +5°C° 0 mm 3 mps 743 mmHg 73%
23:00 +5°C° 0 mm 2 mps 743 mmHg 77%
Show more